Volver al catálogo

PE2_FLT1

TYVAK-0261

ActivoCienciaSSO
NORAD 59105·PAYLOAD·🇺🇸 United States

Lanzado Mar 4, 2024 desde Vandenberg Space Force Base

Loading…

Próximos Pases (próximas 24 horas)

TLE

ActualizadoSource: Space-Track

Época: Sep 14, 2026, 14:21 UTC

1 59105U 24043H   26257.59834955  .00001826  00000-0  16150-3 0  9996
2 59105  97.8507  28.5602 0007605  97.4115 262.7971 14.97565086138036

Sigue PE2_FLT1 en tiempo real con AllMySat

Download on the App Store